Location: ??????
(38.0677°N, 22.9870°E)
Time: 10:13:23
(UTC+00:00)

SL-8 R/B - Pass Details

Date: 23 May 2024
Orbit: 652 x 662 km, 48.4° (Epoch: 18 June)

Event Time Altitude Azimuth Distance (km) Brightness Sun altitude
Rises 01:02:24 0° 302° (WNW) 2,977 7.0 -20.6°
Reaches altitude 10° 01:04:45 10° 300° (WNW) 2,065 6.1 -20.3°
Maximum altitude 01:09:29 71° 217° (SW) 696 3.5 -19.7°
Drops below altitude 10° 01:14:13 10° 134° (SE) 2,063 6.2 -19.1°
Sets 01:16:34 0° 132° (SE) 2,973 7.1 -18.8°
